Regional Weather Roundup
Issued by NWS

Home | Current Version | Previous Version | Graphics & Text | Print | Product List | Glossary On
Versions: 1 2 3 4 5 6 7 8 9 10 11 12 13 14 15 16 17 18 19 20 21 22 23 24 25 26 27 28 29 30 31 32 33 34 35 36 37 38 39 40 41 42 43 44 45 46 47 48 49 50
000
ASUS43 KTOP 241759
RWRKS

WEATHER ROUNDUP FOR KANSAS
NATIONAL WEATHER SERVICE GOODLAND KS
1200 PM CST FRI NOV 24 2017

NOTE:  "FAIR" INDICATES FEW OR NO CLOUDS BELOW 12,000 FEET WITH NO
SIGNIFICANT WEATHER AND/OR OBSTRUCTIONS TO VISIBILITY.

KSZ001>006-013>018-027>032-041>047-241900-
NORTHWEST KANSAS

CITY           SKY/WX    TMP DP  RH WIND       PRES   REMARKS
GOODLAND       CLOUDY    66  32  28 N6        29.78S
6HR MIN TEMP:  41; 6HR MAX TEMP:  67;

HAYS           SUNNY     69  40  34 SW10      29.69F
HILL CITY      SUNNY     80  32  17 NW25G40   29.69F
6HR MIN TEMP:  46; 6HR MAX TEMP:  81;

RUSSELL        SUNNY     75  41  29 SW7       29.66F
6HR MIN TEMP:  45; 6HR MAX TEMP:  75;

$$

KSZ061>065-074>080-084>089-241900-
SOUTHWEST KANSAS

CITY           SKY/WX    TMP DP  RH WIND       PRES   REMARKS
DODGE CITY     SUNNY     73  37  27 CALM      29.72F
6HR MIN TEMP:  40; 6HR MAX TEMP:  73;

GARDEN CITY    SUNNY     70  35  27 E8        29.72F
6HR MIN TEMP:  33; 6HR MAX TEMP:  70;

GREAT BEND     CLOUDY    79  40  24 S3        29.69F
LIBERAL        SUNNY     71  31  22 NW10      29.74F
$$

KSZ066>073-081>083-090>101-241900-
SOUTHEAST KANSAS

CITY           SKY/WX    TMP DP  RH WIND       PRES   REMARKS
CHANUTE        SUNNY     67  36  31 S17       29.73F
6HR MIN TEMP:  46; 6HR MAX TEMP:  67;

COFFEYVILLE    SUNNY     67  37  33 S16       29.75F
6HR MIN TEMP:  42; 6HR MAX TEMP:  67;

HUTCHINSON     SUNNY     69  40  34 SW8       29.69F
6HR MIN TEMP:  39; 6HR MAX TEMP:  69;

MEDICINE LODGE   N/A     69  38  32 VRB6      29.70F
NEWTON         SUNNY     69  39  33 SW16      29.69
PARSONS        SUNNY     67  37  33 S12G24    29.75F
6HR MIN TEMP:  44; 6HR MAX TEMP:  67;

WICHITA INTL   MOSUNNY   67  40  37 SW7       29.73S
6HR MIN TEMP:  43; 6HR MAX TEMP:  67;

WICHITA JABRA  SUNNY     67  38  34 W15       29.73S
6HR MIN TEMP:  47; 6HR MAX TEMP:  67;

WICHITA MCCONL SUNNY     67  37  32 W12       29.73S
WINFIELD       SUNNY     71  39  31 S15       29.73F
6HR MIN TEMP:  44; 6HR MAX TEMP:  71;

$$

KSZ007>012-019>026-033>040-048>060-102>105-241900-
NORTHEAST KANSAS

CITY           SKY/WX    TMP DP  RH WIND       PRES   REMARKS
CONCORDIA      SUNNY     75  39  27 W16       29.60F
6HR MIN TEMP:  50; 6HR MAX TEMP:  75;

EMPORIA        MOSUNNY   71  37  28 SW18G30   29.65F
6HR MIN TEMP:  45; 6HR MAX TEMP:  71;

LAWRENCE       SUNNY     68  38  33 S17G24    29.62F
6HR MIN TEMP:  45; 6HR MAX TEMP:  68;

MANHATTAN      SUNNY     72  40  31 SW14      29.61F
6HR MIN TEMP:  52; 6HR MAX TEMP:  72;

OLATHE IND     CLOUDY    67  38  34 SW24G30   29.64F
6HR MIN TEMP:  44; 6HR MAX TEMP:  67;

OLATHE EXE     SUNNY     67  37  33 SW15G24   29.63F
6HR MIN TEMP:  46; 6HR MAX TEMP:  68;

SALINA         SUNNY     76  42  29 SW13      29.65F
6HR MIN TEMP:  46; 6HR MAX TEMP:  76;

TOPEKA BILLARD SUNNY     68  39  34 SW14G20   29.60F
6HR MIN TEMP:  50; 6HR MAX TEMP:  68;

TOPEKA FORBES  MOSUNNY   69  39  33 S18       29.60F
6HR MIN TEMP:  50; 6HR MAX TEMP:  70;

$$




USA.gov is the U.S. government's official web portal to all federal, state and local government web resources and services.